Location: Fontenoy
(49.4072°N, 3.2008°E)
Time: 20:23:50
(UTC+00:00)

Cosmos 2266 Rocket - Pass Details

Date: 15 May 2026
Orbit: 933 x 1007 km, 82.9° (Epoch: 8 June)

Event Time Altitude Azimuth Distance (km) Brightness Sun altitude
Rises 22:39:26 0° 353° (N) 3,602 8.5 -20.1°
Reaches altitude 10° 22:41:59 10° 358° (N) 2,654 7.4 -20.2°
Maximum altitude 22:47:54 53° 75° (ENE) 1,136 4.3 -20.4°
Enters shadow 22:50:27 33° 135° (SE) 1,541 4.6 -20.5°
